[[{"header":{"parameterUnit":"m.s-1","parameterCategory":1,"la1":30.2991,"la2":30.254,"lo1":-89.0895,"lo2":-89.0444,"dy":0.0017,"dx":0.0017,"nx":28,"ny":28,"refTime":"2024-09-25T09:00:00:Z","depth":0,"parameterNumber":2,"parameterNumberName":"U-component_of_WINDS"},"data":[0,0,0,0,0,0,0,0,0,0,0,0,0,0,0,0,0,0,0,0,0,0,0,0,0,0,0,0,0,0,0,0,0,0,0,0,0,0,0,0,0,0,0,0,0,0,0,0,0,0,0,0,0,0,0,0,0,0,0.046,0.046,0,0.0458,0.0458,0.0458,0.0541,0.0543,0.0545,0.0547,0.0539,0.0536,0.0534,0,0,0,0,0,0,0,0,0,0,0,0,0,0.0529,0.0528,0.046,0.046,0.046,0.0458,0.0458,0.0458,0.0541,0.0543,0.0546,0.0548,0.0539,0.0537,0.0534,0,0,0,0,0,0,0,0,0,0,0,0,0,0.051,0.0527,0.046,0.0501,0.0505,0.0458,0.0458,0.0458,0.054,0.0543,0.0547,0.055,0.054,0.0537,0.0533,0.0445,0,0,0.0523,0.0521,0,0,0,0,0,0,0,0,0.0511,0.0508,0.0495,0.0499,0.0503,0.0503,0.0479,0.0454,0.0539,0.0526,0.0548,0.0551,0.0524,0.0522,0.0514,0.0445,0.0445,0.0523,0.052,0.0519,0.0518,0,0,0,0,0,0,0,0.0512,0.0508,0.0459,0.0495,0.0499,0.0518,0.0519,0.0475,0.0506,0.0528,0.0534,0.0533,0.0526,0.0517,0.0514,0.0444,0.0523,0.052,0.0517,0.0516,0.0299,0.0296,0,0,0,0,0,0,0.0509,0.0509,0.046,0.0459,0.0515,0.0514,0.0515,0.05,0.0507,0.0511,0.053,0.0537,0.0521,0.0518,0.0514,0.0409,0.0519,0.0516,0.0514,0.0303,0.0298,0.0294,0,0,0,0,0,0,0.051,0.0504,0.046,0.0486,0.0481,0.0509,0.0491,0.0498,0.0489,0.0509,0.0514,0.0515,0.0524,0.0519,0.0462,0.041,0.0514,0.0511,0.0307,0.0301,0.0296,0.0198,0,0,0,0,0,0,0.0512,0.0504,0.0472,0.0484,0.048,0.0409,0.0488,0.0495,0.0483,0.0492,0.0496,0.05,0.0526,0.0466,0.0458,0.0407,0.0508,0.0312,0.0305,0.0298,0.0206,0.019,0.0176,0,0,0,0,0,0.0514,0.0444,0.047,0.0464,0.0441,0.0406,0.0403,0.0436,0.0479,0.0446,0.0458,0.05,0.0417,0.046,0.0451,0.0398,0.0315,0.0307,0.0299,0.0213,0.0193,0.0177,0,0,0,0,0,0,0.0424,0.0447,0.0476,0.0409,0.0405,0.042,0.038,0.0415,0.0397,0.0406,0.0446,0.0446,0.0381,0.0384,0.0431,0.0311,0.0373,0.0363,0.0311,0.0293,0.0278,0.0277,0.0505,0,0,0,0,0,0.0396,0.0368,0.0389,0.0327,0.0324,0.0352,0.0337,0.0364,0.036,0.0358,0.0367,0.036,0.0333,0.0313,0.0289,0.0208,0.0208,0.0167,0.0152,0.014,0.0129,0.0083,0.0064,0.0267,0.0267,0.0267,0,0,0.0339,0.0348,0.0327,0.0309,0.0309,0.0275,0.035,0.0312,0.0286,0.0352,0.0298,0.0304,0.0299,0.0228,0.0197,0.0228,0.0073,0.0129,0.0119,0.0115,0.0072,0.0053,0.0036,0.0261,0.0262,0.0263,0,0,0.0216,0.0222,0.0169,0.0168,0.0168,0.0187,0.0174,0.0184,0.019,0.0137,0.0184,0.0154,0.0107,0.01,0.009,-0.0037,-0.0001,-0.0046,-0.0125,-0.0171,-0.0187,-0.0201,-0.025,-0.0268,-0.0055,-0.0056,-0.0056,0,0.0144,0.0097,0.0137,0.0096,0.0085,0.0145,0.009,0.0086,0.0077,0.0067,0.0103,0.0043,0.0044,-0.0029,-0.006,-0.0069,-0.0085,-0.0047,-0.0187,-0.0201,-0.0214,-0.026,-0.0278,-0.0061,-0.0061,-0.006,-0.006,0,0.0007,-0.0027,-0.0069,-0.0078,-0.0093,-0.0141,-0.0111,-0.0132,-0.0105,-0.0091,-0.0148,-0.0144,-0.0168,-0.0183,-0.0157,-0.0254,-0.0235,-0.0194,-0.0131,-0.024,-0.0283,-0.03,-0.007,-0.0068,-0.0066,-0.0064,0,0,-0.0174,-0.0161,-0.0177,-0.0182,-0.0179,-0.0205,-0.0251,-0.0273,-0.0293,-0.0302,-0.0342,-0.0384,-0.0347,-0.0358,-0.0332,-0.0372,-0.0478,-0.0326,-0.0326,-0.0358,-0.0588,-0.0622,-0.0643,-0.0452,-0.0455,-0.0458,-0.0589,0,-0.0296,-0.0373,-0.0339,-0.0421,-0.0453,-0.0397,-0.0438,-0.0442,-0.0431,-0.0458,-0.0446,-0.0478,-0.0423,-0.043,-0.0467,-0.0457,-0.0524,-0.0446,-0.0494,-0.0496,-0.0497,-0.0664,-0.0699,-0.0823,-0.0605,-0.0608,-0.061,0,-0.0448,-0.0462,-0.0547,-0.054,-0.0552,-0.059,-0.0608,-0.0634,-0.0639,-0.0628,-0.0641,-0.0607,-0.0655,-0.0591,-0.0659,-0.0608,-0.0625,-0.0623,-0.0627,-0.0633,-0.0562,-0.0678,-0.0861,-0.0882,-0.0635,-0.0633,-0.0632,0,-0.0576,-0.0616,-0.0673,-0.0678,-0.067,-0.0699,-0.0697,-0.0698,-0.0714,-0.0731,-0.0742,-0.0764,-0.0778,-0.0798,-0.0773,-0.0727,-0.0846,-0.0779,-0.0842,-0.0843,-0.0872,-0.0871,-0.1064,-0.0878,-0.0877,-0.0877,-0.0877,0,-0.0717,-0.0773,-0.073,-0.0766,-0.0827,-0.0788,-0.0851,-0.0843,-0.0845,-0.088,-0.0833,-0.0867,-0.083,-0.0862,-0.0843,-0.0905,-0.091,-0.0905,-0.09,-0.0912,-0.0913,-0.0925,-0.0917,-0.0882,-0.0881,-0.088,-0.0879,0,-0.0872,-0.0845,-0.0904,-0.0892,-0.089,-0.0936,-0.0927,-0.0961,-0.0945,-0.0991,-0.0999,-0.0977,-0.1012,-0.0988,-0.1024,-0.1011,-0.1093,-0.1074,-0.1091,-0.1088,-0.1154,-0.1149,-0.1364,-0.1391,-0.1184,-0.1186,-0.1188,0,-0.0965,-0.1006,-0.0999,-0.1018,-0.1019,-0.1051,-0.1067,-0.1031,-0.105,-0.1059,-0.1093,-0.1124,-0.1147,-0.1207,-0.1196,-0.1224,-0.1208,-0.1281,-0.1212,-0.1223,-0.1213,-0.1212,-0.1218,-0.1296,-0.1298,-0.13,-0.1302,0,-0.1135,-0.1121,-0.1144,-0.1165,-0.1185,-0.1199,-0.121,-0.123,-0.1193,-0.1218,-0.1253,-0.1271,-0.1307,-0.134,-0.1364,-0.1365,-0.133,-0.1323,-0.134,-0.1354,-0.1363,-0.1363,-0.1133,-0.1319,-0.1317,-0.1316,-0.1315,-0.1315,-0.1264,-0.13,-0.13,-0.1329,-0.1333,-0.1345,-0.1377,-0.1366,-0.1393,-0.1419,-0.1397,-0.144,-0.1446,-0.1474,-0.148,-0.1515,-0.1486,-0.1509,-0.1516,-0.1523,-0.1534,-0.1355,-0.1519,-0.1518,-0.1518,-0.1517,-0.1517,0,-0.1435,-0.1433,-0.146,-0.1477,-0.15,-0.1461,-0.1472,-0.1496,-0.1533,-0.1541,-0.1564,-0.1606,-0.1638,-0.1629,-0.1659,-0.1689,-0.1674,-0.1699,-0.1698,-0.17,-0.1556,-0.1541,-0.1711,-0.1711,-0.1711,-0.1711,-0.1711,-0.1711,-0.1527,-0.1585,-0.1571,-0.1632,-0.163,-0.167,-0.168,-0.1692,-0.1698,-0.1747,-0.1772,-0.1765,-0.1768,-0.1797,-0.1826,-0.1823,-0.1838,-0.1869,-0.1861,-0.1728,-0.1709,-0.1691,-0.1676,-0.1872,-0.1872,-0.2001,-0.2003,-0.2004]},{"header":{"parameterUnit":"m.s-1","parameterCategory":1,"la1":30.2991,"la2":30.254,"lo1":-89.0895,"lo2":-89.0444,"dy":0.0017,"dx":0.0017,"nx":28,"ny":28,"refTime":"2024-09-25T09:00:00:Z","depth":0,"parameterNumber":3,"parameterNumberName":"V-component_of_WINDS"},"data":[0,0,0,0,0,0,0,0,0,0,0,0,0,0,0,0,0,0,0,0,0,0,0,0,0,0,0,0,0,0,0,0,0,0,0,0,0,0,0,0,0,0,0,0,0,0,0,0,0,0,0,0,0,0,0,0,0,0,-1.507,-1.5069,0,-1.5011,-1.501,-1.501,-1.498,-1.4979,-1.4979,-1.4979,-1.492,-1.4918,-1.4917,0,0,0,0,0,0,0,0,0,0,0,0,0,-1.5154,-1.5153,-1.507,-1.5069,-1.5068,-1.5011,-1.501,-1.501,-1.498,-1.4979,-1.4979,-1.4979,-1.492,-1.4918,-1.4917,0,0,0,0,0,0,0,0,0,0,0,0,0,-1.5109,-1.5152,-1.507,-1.5047,-1.5044,-1.5011,-1.501,-1.5009,-1.498,-1.4979,-1.4979,-1.4979,-1.4921,-1.4919,-1.4916,-1.4903,0,0,-1.4909,-1.4908,0,0,0,0,0,0,0,0,-1.5111,-1.5106,-1.5051,-1.5048,-1.5045,-1.5003,-1.5018,-1.4974,-1.498,-1.5004,-1.4979,-1.4979,-1.4947,-1.4943,-1.4932,-1.49,-1.4898,-1.4909,-1.4908,-1.4907,-1.4906,0,0,0,0,0,0,0,-1.5114,-1.5108,-1.5047,-1.505,-1.5046,-1.5038,-1.5032,-1.501,-1.4977,-1.5002,-1.4999,-1.4993,-1.4946,-1.4934,-1.493,-1.4897,-1.4909,-1.4907,-1.4905,-1.4905,-1.4847,-1.4846,0,0,0,0,0,0,-1.5121,-1.5111,-1.5049,-1.5045,-1.5079,-1.5037,-1.5029,-1.5016,-1.4977,-1.4971,-1.4993,-1.4992,-1.4938,-1.4933,-1.4928,-1.4907,-1.4907,-1.4904,-1.4903,-1.4847,-1.4847,-1.4846,0,0,0,0,0,0,-1.5123,-1.5116,-1.5051,-1.5077,-1.5068,-1.5035,-1.5021,-1.5015,-1.5004,-1.497,-1.4964,-1.4987,-1.4938,-1.4931,-1.4908,-1.4905,-1.4903,-1.4901,-1.4847,-1.4847,-1.4846,-1.4867,0,0,0,0,0,0,-1.5126,-1.5117,-1.5112,-1.5077,-1.5067,-1.5033,-1.5021,-1.5014,-1.5,-1.4997,-1.4963,-1.4958,-1.4937,-1.4912,-1.4906,-1.4902,-1.4899,-1.4847,-1.4847,-1.4847,-1.4867,-1.4868,-1.4868,0,0,0,0,0,-1.5129,-1.5122,-1.5112,-1.5105,-1.506,-1.5033,-1.5027,-1.5004,-1.5,-1.4994,-1.4972,-1.4959,-1.4906,-1.491,-1.4903,-1.4898,-1.4847,-1.4847,-1.4847,-1.4866,-1.4867,-1.4868,0,0,0,0,0,0,-1.5158,-1.5117,-1.5106,-1.5087,-1.5064,-1.5028,-1.502,-1.5007,-1.4984,-1.4983,-1.4955,-1.4948,-1.4927,-1.491,-1.4915,-1.4881,-1.4875,-1.4873,-1.4892,-1.4893,-1.4894,-1.4898,-1.4897,0,0,0,0,0,-1.5163,-1.5144,-1.5108,-1.5095,-1.5084,-1.5054,-1.5041,-1.5025,-1.5,-1.499,-1.4966,-1.4942,-1.4919,-1.4906,-1.4884,-1.4864,-1.4854,-1.4856,-1.4857,-1.4858,-1.4857,-1.4842,-1.4841,-1.4845,-1.4845,-1.4845,0,0,-1.5171,-1.5146,-1.5136,-1.51,-1.508,-1.506,-1.5046,-1.5027,-1.5011,-1.4987,-1.4963,-1.4945,-1.4915,-1.4893,-1.4882,-1.4879,-1.4853,-1.4858,-1.4859,-1.4857,-1.4841,-1.4841,-1.4841,-1.4845,-1.4845,-1.4845,0,0,-1.5177,-1.5157,-1.5142,-1.5121,-1.509,-1.507,-1.5066,-1.5032,-1.5018,-1.4994,-1.4974,-1.4955,-1.4918,-1.4897,-1.4881,-1.4874,-1.486,-1.4868,-1.4873,-1.4858,-1.4858,-1.4858,-1.4853,-1.4852,-1.4867,-1.4867,-1.4867,0,-1.5191,-1.5161,-1.5136,-1.5116,-1.51,-1.5076,-1.5059,-1.504,-1.5004,-1.4993,-1.4989,-1.4939,-1.4919,-1.4889,-1.4887,-1.4876,-1.4869,-1.4872,-1.486,-1.4859,-1.4859,-1.4854,-1.4852,-1.4868,-1.4868,-1.4868,-1.4867,0,-1.5179,-1.5159,-1.515,-1.5114,-1.5097,-1.5079,-1.505,-1.5035,-1.5019,-1.4999,-1.4972,-1.4946,-1.4916,-1.4908,-1.4894,-1.4876,-1.4874,-1.4866,-1.4859,-1.486,-1.4854,-1.4853,-1.4869,-1.4869,-1.4868,-1.4868,0,0,-1.5203,-1.5151,-1.5148,-1.513,-1.5093,-1.5076,-1.5056,-1.5026,-1.5013,-1.4988,-1.4969,-1.4936,-1.4927,-1.4909,-1.4892,-1.4879,-1.4872,-1.4872,-1.4871,-1.4871,-1.4847,-1.4853,-1.4851,-1.4862,-1.4862,-1.4862,-1.4849,0,-1.5202,-1.5165,-1.514,-1.5112,-1.5091,-1.5066,-1.5048,-1.5022,-1.5002,-1.498,-1.4958,-1.4934,-1.4925,-1.4914,-1.49,-1.4876,-1.4867,-1.4876,-1.4843,-1.4842,-1.485,-1.4849,-1.4856,-1.4845,-1.4847,-1.4847,-1.4847,0,-1.5196,-1.517,-1.514,-1.5102,-1.5092,-1.5076,-1.5045,-1.5025,-1.4994,-1.498,-1.4959,-1.494,-1.4916,-1.4911,-1.4876,-1.4884,-1.4868,-1.4854,-1.4852,-1.4848,-1.4844,-1.4843,-1.4842,-1.484,-1.4844,-1.4844,-1.4844,0,-1.5214,-1.5171,-1.5147,-1.5132,-1.5088,-1.5077,-1.5058,-1.5027,-1.501,-1.4982,-1.497,-1.494,-1.4924,-1.49,-1.4873,-1.4873,-1.484,-1.4834,-1.4826,-1.4827,-1.482,-1.4821,-1.4815,-1.4812,-1.4812,-1.4812,-1.4812,0,-1.5214,-1.5196,-1.5154,-1.5139,-1.5117,-1.5087,-1.5067,-1.5045,-1.5017,-1.4996,-1.4973,-1.4954,-1.492,-1.4896,-1.4875,-1.4847,-1.4841,-1.4827,-1.4821,-1.4829,-1.483,-1.4818,-1.4817,-1.4812,-1.4812,-1.4812,-1.4812,0,-1.523,-1.5201,-1.5173,-1.5132,-1.5121,-1.5107,-1.5071,-1.5054,-1.5032,-1.5006,-1.4998,-1.4962,-1.4932,-1.4903,-1.4863,-1.4848,-1.4821,-1.4814,-1.4831,-1.4828,-1.482,-1.4821,-1.4806,-1.4801,-1.4803,-1.4803,-1.4803,0,-1.5232,-1.5217,-1.5174,-1.5158,-1.5139,-1.5114,-1.5096,-1.5065,-1.5046,-1.5008,-1.4996,-1.4964,-1.4937,-1.489,-1.486,-1.4829,-1.482,-1.4817,-1.4815,-1.4822,-1.4818,-1.4819,-1.4816,-1.4818,-1.4818,-1.4818,-1.4818,0,-1.5237,-1.5223,-1.5197,-1.5165,-1.5143,-1.5117,-1.509,-1.5078,-1.5042,-1.5021,-1.499,-1.4969,-1.4927,-1.4895,-1.486,-1.4839,-1.4821,-1.4818,-1.4815,-1.4821,-1.4831,-1.4824,-1.4832,-1.4819,-1.4819,-1.4819,-1.4819,-1.4819,-1.5245,-1.523,-1.5196,-1.5167,-1.5143,-1.5117,-1.5098,-1.5072,-1.5046,-1.5009,-1.4992,-1.496,-1.4927,-1.4877,-1.4856,-1.4829,-1.4825,-1.482,-1.4819,-1.4817,-1.4818,-1.4836,-1.4823,-1.4823,-1.4823,-1.4823,-1.4823,0,-1.5247,-1.5224,-1.5197,-1.5159,-1.5135,-1.5121,-1.5089,-1.507,-1.5042,-1.5012,-1.4985,-1.4948,-1.4916,-1.4882,-1.4847,-1.4832,-1.4823,-1.4824,-1.4825,-1.4819,-1.4825,-1.4831,-1.4832,-1.4832,-1.4832,-1.4832,-1.4832,-1.4832,-1.5246,-1.5218,-1.5199,-1.5158,-1.5134,-1.5102,-1.5085,-1.506,-1.5036,-1.4995,-1.4968,-1.4946,-1.4913,-1.4876,-1.4845,-1.4836,-1.4823,-1.4826,-1.4814,-1.482,-1.4819,-1.4819,-1.4824,-1.4824,-1.4824,-1.4811,-1.4811,-1.4811]}]]